This is the latest recevied weather packets stored in our database for station/object KC9MWQ-13. If no packets are shown the sender has not sent any weather packets the latest 10 day(s).
| Time | Temp. | Humidity | Pressure | Rain* | Wind** | Luminosity | Snow |
|---|---|---|---|---|---|---|---|
| 1778106505 | 13.33° C | 57% | 1014.4 hPa | 0 mm | - | 127 W/m² | - |
| 1778106201 | 13.89° C | 58% | 1014.6 hPa | 0 mm | - | 136 W/m² | - |
| 1778105899 | 13.89° C | 57% | 1014.6 hPa | 0 mm | - | 149 W/m² | - |
| 1778105596 | 13.33° C | 59% | 1014.4 hPa | 0 mm | - | 150 W/m² | - |
| 1778105294 | 13.89° C | 58% | 1014.5 hPa | 0 mm | - | 154 W/m² | - |
| 1778104988 | 13.89° C | 61% | 1014.6 hPa | 0 mm | - | 161 W/m² | - |
| 1778104685 | 13.89° C | 60% | 1014.3 hPa | 0 mm | - | 169 W/m² | - |
| 1778104381 | 13.33° C | 61% | 1014.4 hPa | 0 mm | - | 218 W/m² | - |
| 1778104077 | 13.33° C | 58% | 1014.3 hPa | 0 mm | - | 184 W/m² | - |
| 1778103774 | 13.33° C | 60% | 1014.3 hPa | 0 mm | - | 202 W/m² | - |
| 1778103472 | 13.33° C | 59% | 1014.5 hPa | 0 mm | - | 180 W/m² | - |
| 1778103169 | 13.33° C | 62% | 1014.4 hPa | 0 mm | - | 170 W/m² | - |
| 1778102867 | 13.89° C | 60% | 1014.3 hPa | 0 mm | - | 207 W/m² | - |
| 1778102562 | 13.89° C | 59% | 1014.3 hPa | 0 mm | - | 259 W/m² | - |
| 1778102258 | 13.89° C | 61% | 1014.3 hPa | 0 mm | - | 217 W/m² | - |
| 1778101954 | 14.44° C | 57% | 1014.3 hPa | 0 mm | - | 202 W/m² | - |
| 1778101651 | 13.89° C | 60% | 1014.2 hPa | 0 mm | - | 601 W/m² | - |
| 1778101348 | 13.89° C | 63% | 1014.4 hPa | 0 mm | - | 184 W/m² | - |
| 1778101045 | 14.44° C | 58% | 1014.4 hPa | 0 mm | - | 249 W/m² | - |
| 1778100741 | 13.89° C | 61% | 1014.5 hPa | 0 mm | - | 288 W/m² | - |
| 1778100438 | 14.44° C | 61% | 1014.3 hPa | 0 mm | - | 246 W/m² | - |
| 1778100135 | 13.89° C | 58% | 1014.5 hPa | 0 mm | - | 404 W/m² | - |
| 1778099833 | 13.89° C | 58% | 1014.5 hPa | 0 mm | - | 453 W/m² | - |
| 1778099530 | 13.33° C | 61% | 1014.4 hPa | 0 mm | - | 376 W/m² | - |
| 1778099228 | 13.33° C | 60% | 1014.3 hPa | 0 mm | - | 310 W/m² | - |
* Rain latest hour (hover to see other rain measurements)
** Current wind speed in m/s (hover to see current wind gust speed)